H-3 R/B, 62877

Orbit data source: Space-Track

H-3 R/B, 62877 is space debris in HEO originally from a launch on Sun, 02 Feb 2025 UTC launched from the Tanegashima Space Center (TNSTA). Debris objects in space refer to the collection of defunct objects orbiting the Earth. Examples of debris include non-operational satellites, rocket bodies, and fragments generated from explosions, collisions, or faulty payload assembly.

Loading next visibility...
H-3 R/B details
Identifier
62877, 2025-023B
Orbit
HEO
Last TLE update3 days ago
Origin
Flag of JPMHI (JP / JPN)
ManufacturerMHI Tobishima
MissionSpacecraft
Bus & MotorH-2A STAGE 2, Unknown motor
Mass2,500 kg wet, 2,500 kg dry
Launch date (UTC)
2025-02-02 (2 weeks ago)
Launch vehicleUnknown
Launch site
Tanegashima Space Center (TNSTA)
Object type
Payload
Rocket body
Debris
Shape & HBRUnknown
Radar Cross SectionRCS unknown

Expand to show TLE details & history

TLE from 3 days ago
0 H-3 R/B
1 62877U 25023B   25044.78701506  .00010102  00000-0  26172-2 0  9995
2 62877  21.3938 299.4308 7251931 183.3744 165.4572  2.31964118   253
Epoch: 2025-02-13T18:53Z
Definitive object data (Epoch: 2025-02-13T18:53:18.101Z)
Latitude0.00001°
Longitude-127.93578°
Altitude35,034.835 km
Speed1.648 km/s
True Right ascension19h 57m 47s
True Declination0° 00' 00"
Sunlit
Object was in daylight at TLE epoch
Visualization TLE readout
Latitude6.43167°
Longitude-112.25712°
Altitude32,718.467 km
Speed1.963 km/s
Apparent Right ascension21h 26m 22s
Apparent Declination0° 25' 36"
Sunlit
Object is in daylight
Visualization observer readout
Local Sidereal Time13:39:29
Azimuth71.767° E
Elevation-19.883°
Doppler factor1
Orbital elements
Apogee altitude35,216.754 km
Perigee altitude247.535 km
Semi-major axis24,110.281 km
Eccentricity0.7251931
Inclination21.3938°
RAAN299.4308°
Arg. of periapsis183.3744°
True anomaly176.62536°
Mean anomaly165.4572°
Eccentric anomaly171.55751°
Mean motion0.57975 °/min
BSTAR0.0026172
Orbital period620.96 mins
Loading maneuver chart data...
Loading historical data...
Loading historical data...
Loading historical data...
Loading historical data...
Loading historical data...
Loading historical data...
Loading historical data...
Other satellites on launch #23 in the year 2025 (2025-02-02 UTC)

H-3 R/B Visibility forecast

Observer location: undefined°, undefined

Span
Click to sort rows by Start time (UTC) header in descending order
Start Az.
Max El. time (UTC)
Max El. Az.
Max El.
End time (UTC)
End Az.
549 mins2025-02-16 15:32:12.681Z207.311° SW2025-02-17 00:30:12.681Z210.75° SW34.705°2025-02-17 00:41:12.681Z144.709° SSE
|